| time (UTC) | temp F | wind direction | speed MPH | gust MPH | rain 1hr in | rain 24hr in | rain mn in | humidity % | barometer mb |
| 20260906161518 | 94 | 34 | 2.0 | 6.0 | 0.00 | 0.27 | 0.00 | 51 | 1017.1 |
| 20260906160016 | 94 | 47 | 1.0 | 4.0 | 0.00 | 0.27 | 0.00 | 52 | 1017.1 |
| 20260906154528 | 93 | 26 | 2.0 | 4.0 | 0.00 | 0.27 | 0.00 | 51 | 1017.0 |
| 20260906153007 | 92 | 138 | 1.0 | 3.0 | 0.00 | 0.27 | 0.00 | 52 | 1017.0 |
| 20260906151511 | 92 | 104 | 0.0 | 4.0 | 0.00 | 0.27 | 0.00 | 58 | 1017.0 |
| 20260906150023 | 90 | 333 | 1.0 | 2.0 | 0.00 | 0.27 | 0.00 | 57 | 1016.8 |
| 20260906144529 | 89 | 12 | 0.0 | 3.0 | 0.00 | 0.27 | 0.00 | 60 | 1016.8 |
| 20260906143035 | 88 | 121 | 2.0 | 8.0 | 0.00 | 0.27 | 0.00 | 61 | 1016.8 |
| 20260906141511 | 87 | 82 | 1.0 | 3.0 | 0.00 | 0.27 | 0.00 | 66 | 1016.8 |
| 20260906140028 | 85 | 352 | 1.0 | 2.0 | 0.00 | 0.27 | 0.00 | 67 | 1016.7 |
| 20260906134518 | 83 | 21 | 0.0 | 2.0 | 0.00 | 0.27 | 0.00 | 73 | 1016.7 |
| 20260906133030 | 80 | 159 | 0.0 | 2.0 | 0.00 | 0.27 | 0.00 | 76 | 1016.7 |
| 20260906131515 | 77 | 138 | 1.0 | 2.0 | 0.00 | 0.27 | 0.00 | 79 | 1016.6 |
| 20260906130013 | 75 | 121 | 0.0 | 1.0 | 0.00 | 0.27 | 0.00 | 83 | 1016.6 |
| 20260906124518 | 72 | 109 | 0.0 | 2.0 | 0.00 | 0.27 | 0.00 | 87 | 1016.6 |
| 20260906123027 | 70 | 129 | 0.0 | 2.0 | 0.00 | 0.27 | 0.00 | 91 | 1016.3 |
| 20260906121532 | 69 | 165 | 0.0 | 0.0 | 0.00 | 0.27 | 0.00 | 92 | 1016.0 |
| 20260906120013 | 69 | 112 | 0.0 | 0.0 | 0.00 | 0.27 | 0.00 | 92 | 1016.0 |
| 20260906114518 | 69 | 112 | 0.0 | 0.0 | 0.00 | 0.27 | 0.00 | 92 | 1015.8 |
| 20260906113025 | 69 | 112 | 0.0 | 0.0 | 0.00 | 0.27 | 0.00 | 91 | 1015.6 |
| 20260906111530 | 70 | 112 | 0.0 | 0.0 | 0.00 | 0.27 | 0.00 | 91 | 1015.5 |
| 20260906110029 | 70 | 112 | 0.0 | 0.0 | 0.00 | 0.27 | 0.00 | 90 | 1015.5 |
| 20260906104526 | 70 | 112 | 0.0 | 0.0 | 0.00 | 0.27 | 0.00 | 89 | 1015.5 |
| 20260906103024 | 71 | 112 | 0.0 | 0.0 | 0.00 | 0.27 | 0.00 | 89 | 1015.4 |
| 20260906101528 | 71 | 112 | 0.0 | 0.0 | 0.00 | 0.27 | 0.00 | 88 | 1015.4 |
| 20260906100031 | 72 | 112 | 0.0 | 0.0 | 0.00 | 0.27 | 0.00 | 87 | 1015.3 |
| 20260906094539 | 72 | 112 | 0.0 | 0.0 | 0.00 | 0.27 | 0.00 | 85 | 1015.1 |
| 20260906093032 | 73 | 112 | 0.0 | 0.0 | 0.00 | 0.27 | 0.00 | 84 | 1015.1 |
| 20260906091529 | 74 | 112 | 0.0 | 0.0 | 0.00 | 0.27 | 0.00 | 82 | 1015.0 |
| 20260906090034 | 74 | 129 | 0.0 | 4.0 | 0.00 | 0.27 | 0.00 | 80 | 1015.0 |
| 20260906084545 | 73 | 155 | 1.0 | 3.0 | 0.00 | 0.27 | 0.00 | 83 | 1014.9 |
| 20260906083019 | 73 | 71 | 0.0 | 0.0 | 0.00 | 0.27 | 0.00 | 83 | 1014.9 |
| 20260906081530 | 74 | 71 | 0.0 | 0.0 | 0.00 | 0.27 | 0.00 | 82 | 1014.8 |
| 20260906080034 | 74 | 71 | 0.0 | 0.0 | 0.00 | 0.27 | 0.00 | 81 | 1014.9 |
| 20260906074509 | 73 | 71 | 0.0 | 0.0 | 0.00 | 0.27 | 0.00 | 82 | 1014.9 |
| 20260906073015 | 72 | 71 | 0.0 | 0.0 | 0.00 | 0.27 | 0.00 | 85 | 1015.0 |
| 20260906071514 | 71 | 71 | 0.0 | 0.0 | 0.00 | 0.27 | 0.00 | 89 | 1015.1 |
| 20260906070004 | 71 | 71 | 0.0 | 0.0 | 0.00 | 0.27 | 0.00 | 91 | 1015.2 |
| 20260906064509 | 71 | 71 | 0.0 | 0.0 | 0.00 | 0.27 | 0.00 | 91 | 1015.2 |
| 20260906063011 | 71 | 71 | 0.0 | 0.0 | 0.00 | 0.27 | 0.00 | 92 | 1015.5 |
| 20260906061516 | 71 | 71 | 0.0 | 0.0 | 0.00 | 0.27 | 0.00 | 92 | 1015.4 |
| 20260906060020 | 71 | 71 | 0.0 | 0.0 | 0.00 | 0.27 | 0.00 | 92 | 1015.5 |
| 20260906054507 | 72 | 71 | 0.0 | 0.0 | 0.00 | 0.27 | 0.00 | 92 | 1015.4 |
| 20260906053011 | 72 | 70 | 0.0 | 0.0 | 0.00 | 0.27 | 0.00 | 91 | 1015.4 |
| 20260906051518 | 72 | 71 | 0.0 | 0.0 | 0.00 | 0.27 | 0.00 | 90 | 1015.4 |
| 20260906050025 | 72 | 71 | 0.0 | 0.0 | 0.00 | 0.27 | 0.00 | 90 | 1015.4 |
| 20260906044508 | 72 | 71 | 0.0 | 0.0 | 0.00 | 0.27 | 0.27 | 91 | 1015.3 |
| 20260906043010 | 72 | 71 | 0.0 | 0.0 | 0.00 | 0.27 | 0.27 | 90 | 1015.5 |
| 20260906041517 | 72 | 71 | 0.0 | 0.0 | 0.00 | 0.27 | 0.27 | 89 | 1015.4 |
| 20260906040031 | 73 | 71 | 0.0 | 0.0 | 0.00 | 0.27 | 0.27 | 90 | 1015.2 |
| 20260906034534 | 73 | 71 | 0.0 | 2.0 | 0.00 | 0.27 | 0.27 | 89 | 1015.3 |
| 20260906033021 | 73 | 71 | 0.0 | 2.0 | 0.00 | 0.27 | 0.27 | 87 | 1015.2 |
| 20260906031511 | 74 | 71 | 0.0 | 1.0 | 0.00 | 0.27 | 0.27 | 87 | 1015.1 |
| 20260906030017 | 74 | 71 | 0.0 | 0.0 | 0.00 | 0.27 | 0.27 | 87 | 1014.9 |
| 20260906024523 | 74 | 71 | 0.0 | 0.0 | 0.00 | 0.27 | 0.27 | 85 | 1014.7 |
| 20260906023026 | 75 | 71 | 0.0 | 0.0 | 0.00 | 0.27 | 0.27 | 83 | 1014.6 |
| 20260906021512 | 76 | 71 | 0.0 | 0.0 | 0.00 | 0.27 | 0.27 | 83 | 1014.6 |
| 20260906020018 | 76 | 71 | 0.0 | 2.0 | 0.00 | 0.27 | 0.27 | 81 | 1014.1 |
| 20260906014537 | 78 | 9 | 0.0 | 1.0 | 0.00 | 0.27 | 0.27 | 78 | 1013.9 |
| 20260906013026 | 79 | 96 | 0.0 | 2.0 | 0.00 | 0.27 | 0.27 | 72 | 1013.9 |
| 20260906011517 | 78 | 117 | 1.0 | 2.0 | 0.00 | 0.27 | 0.27 | 73 | 1013.7 |
| 20260906010016 | 79 | 132 | 0.0 | 2.0 | 0.00 | 0.27 | 0.27 | 74 | 1013.8 |
| 20260906004535 | 80 | 93 | 0.0 | 2.0 | 0.00 | 0.27 | 0.27 | 73 | 1013.8 |
| 20260906003043 | 80 | 329 | 0.0 | 4.0 | 0.00 | 0.27 | 0.27 | 72 | 1014.1 |
| 20260906001531 | 81 | 57 | 1.0 | 8.0 | 0.00 | 0.27 | 0.27 | 73 | 1014.1 |
| 20260906000011 | 78 | 58 | 1.0 | 4.0 | 0.00 | 0.27 | 0.27 | 87 | 1014.1 |
| 20260905234528 | 78 | 153 | 0.0 | 2.0 | 0.24 | 0.27 | 0.27 | 89 | 1013.7 |
| 20260905233029 | 76 | 153 | 0.0 | 2.0 | 0.27 | 0.27 | 0.27 | 88 | 1013.6 |
| 20260905231537 | 76 | 231 | 0.0 | 2.0 | 0.27 | 0.27 | 0.27 | 85 | 1013.8 |
| 20260905230032 | 77 | 27 | 1.0 | 23.0 | 0.27 | 0.27 | 0.27 | 78 | 1014.0 |
| 20260905224525 | 95 | 65 | 1.0 | 8.0 | 0.03 | 0.03 | 0.03 | 48 | 1014.2 |
| 20260905223024 | 99 | 41 | 1.0 | 5.0 | 0.00 | 0.00 | 0.00 | 38 | 1013.3 |
| 20260905221528 | 98 | 144 | 1.0 | 2.0 | 0.00 | 0.00 | 0.00 | 39 | 1013.3 |
| 20260905220031 | 97 | 346 | 0.0 | 2.0 | 0.00 | 0.00 | 0.00 | 45 | 1013.3 |
| 20260905214533 | 98 | 333 | 0.0 | 2.0 | 0.00 | 0.00 | 0.00 | 37 | 1013.5 |
| 20260905213037 | 99 | 311 | 1.0 | 4.0 | 0.00 | 0.00 | 0.00 | 38 | 1013.4 |
| 20260905211538 | 100 | 269 | 2.0 | 8.0 | 0.00 | 0.00 | 0.00 | 38 | 1013.8 |
| 20260905210031 | 99 | 323 | 2.0 | 8.0 | 0.00 | 0.00 | 0.00 | 37 | 1014.0 |
| 20260905204531 | 100 | 327 | 3.0 | 6.0 | 0.00 | 0.00 | 0.00 | 37 | 1014.3 |
| 20260905203020 | 100 | 10 | 1.0 | 5.0 | 0.00 | 0.00 | 0.00 | 38 | 1014.4 |
| 20260905201524 | 99 | 105 | 3.0 | 9.0 | 0.00 | 0.00 | 0.00 | 38 | 1014.6 |
| 20260905200033 | 100 | 46 | 1.0 | 4.0 | 0.00 | 0.00 | 0.00 | 40 | 1014.9 |
| 20260905194512 | 99 | 343 | 1.0 | 5.0 | 0.00 | 0.00 | 0.00 | 38 | 1015.1 |
| 20260905193017 | 99 | 72 | 3.0 | 8.0 | 0.00 | 0.00 | 0.00 | 40 | 1015.2 |
| 20260905191523 | 98 | 40 | 2.0 | 7.0 | 0.00 | 0.00 | 0.00 | 40 | 1015.4 |
| 20260905190010 | 98 | 90 | 2.0 | 4.0 | 0.00 | 0.00 | 0.00 | 40 | 1015.7 |
| 20260905184508 | 98 | 360 | 2.0 | 8.0 | 0.00 | 0.00 | 0.00 | 43 | 1015.9 |
| 20260905183016 | 98 | 63 | 1.0 | 3.0 | 0.00 | 0.00 | 0.00 | 42 | 1016.1 |
| 20260905181531 | 97 | 348 | 1.0 | 6.0 | 0.00 | 0.00 | 0.00 | 42 | 1016.3 |
| 20260905180029 | 97 | 175 | 4.0 | 9.0 | 0.00 | 0.00 | 0.00 | 45 | 1016.3 |
| 20260905174508 | 96 | 76 | 2.0 | 5.0 | 0.00 | 0.00 | 0.00 | 46 | 1016.7 |
| 20260905173013 | 96 | 36 | 2.0 | 8.0 | 0.00 | 0.00 | 0.00 | 46 | 1016.8 |
| 20260905171524 | 95 | 238 | 4.0 | 10.0 | 0.00 | 0.00 | 0.00 | 49 | 1017.1 |
| 20260905170026 | 95 | 313 | 2.0 | 6.0 | 0.00 | 0.00 | 0.00 | 49 | 1017.2 |
| 20260905164532 | 94 | 132 | 1.0 | 6.0 | 0.00 | 0.00 | 0.00 | 50 | 1017.4 |
| 20260905163009 | 92 | 315 | 3.0 | 8.0 | 0.00 | 0.00 | 0.00 | 52 | 1017.4 |